FW6430 Weather Reports


time (UTC)temp
C
wind
direction
speed
KPH
gust
KPH
rain 1hr
cm
rain 24hr
cm
rain mn
cm
humidity
%
barometer
mb
20260507151422 15 150 0.0 0.0 0.00 0.00 0.00 65 1007.9
20260507150916 14 98 0.0 0.0 0.00 0.00 0.00 65 1008.0
20260507150410 14 156 1.6 0.0 0.00 0.00 0.00 67 1008.0
20260507145904 14 30 1.6 0.0 0.00 0.00 0.00 65 1008.0
20260507145358 14 345 0.0 0.0 0.00 0.00 0.00 68 1008.1
20260507144852 13 325 0.0 0.0 0.00 0.00 0.00 73 1008.2
20260507144346 13 11 0.0 0.0 0.00 0.00 0.00 71 1008.3
20260507143840 13 12 0.0 0.0 0.00 0.00 0.00 72 1008.2
20260507143334 13 311 1.6 0.0 0.00 0.00 0.00 74 1008.3
20260507142829 13 170 0.0 0.0 0.00 0.00 0.00 77 1008.4
20260507142322 13 198 0.0 0.0 0.00 0.00 0.00 74 1008.5
20260507141817 13 273 0.0 0.0 0.00 0.00 0.00 75 1008.5
20260507141310 12 178 1.6 0.0 0.00 0.00 0.00 74 1008.5
20260507140805 12 313 0.0 0.0 0.00 0.00 0.00 78 1008.6
20260507140258 12 242 1.6 0.0 0.00 0.00 0.00 75 1008.6
20260507135752 12 3 0.0 0.0 0.00 0.00 0.00 80 1008.6
20260507135246 11 106 0.0 0.0 0.00 0.00 0.00 83 1008.6
20260507134740 11 175 0.0 0.0 0.00 0.00 0.00 85 1008.6
20260507134235 11 184 0.0 0.0 0.00 0.00 0.00 88 1008.6
20260507133729 11 209 0.0 0.0 0.00 0.00 0.00 90 1008.7
20260507133222 11 325 0.0 0.0 0.00 0.00 0.00 91 1008.7
20260507132717 11 270 0.0 0.0 0.00 0.00 0.00 92 1008.8
20260507132210 11 271 0.0 0.0 0.00 0.00 0.00 94 1008.8
20260507131705 11 272 0.0 0.0 0.00 0.00 0.00 94 1008.8
20260507131158 11 272 0.0 0.0 0.00 0.00 0.00 94 1008.8
20260507130653 11 268 0.0 0.0 0.00 0.00 0.00 95 1008.8
20260507130147 11 313 0.0 0.0 0.00 0.00 0.00 96 1009.0
20260507125640 11 332 0.0 0.0 0.00 0.00 0.00 97 1008.9
20260507125135 11 331 0.0 0.0 0.00 0.00 0.00 97 1009.0
20260507124628 10 331 0.0 0.0 0.00 0.00 0.00 97 1008.8
20260507124123 10 333 0.0 0.0 0.00 0.00 0.00 97 1008.9
20260507123616 10 237 0.0 0.0 0.00 0.00 0.00 97 1008.9
20260507123111 10 237 0.0 0.0 0.00 0.00 0.00 97 1009.0
20260507122604 10 237 0.0 0.0 0.00 0.00 0.00 97 1009.1
20260507122059 10 237 0.0 0.0 0.00 0.00 0.00 97 1009.3
20260507121553 10 237 0.0 0.0 0.00 0.00 0.00 97 1009.3
20260507121047 10 237 0.0 0.0 0.00 0.00 0.00 97 1009.2
20260507120541 10 237 0.0 0.0 0.00 0.00 0.00 97 1008.9
20260507120035 10 237 0.0 0.0 0.00 0.00 0.00 97 1008.9
20260507115529 10 237 0.0 0.0 0.00 0.00 0.00 97 1008.9
20260507115023 10 237 0.0 0.0 0.00 0.00 0.00 97 1008.9
20260507114517 10 237 0.0 0.0 0.00 0.00 0.00 97 1008.8
20260507114011 10 237 0.0 0.0 0.00 0.00 0.00 97 1008.9
20260507113505 10 237 0.0 0.0 0.00 0.00 0.00 97 1009.0
20260507112959 10 237 0.0 0.0 0.00 0.00 0.00 97 1008.9
20260507112453 10 237 0.0 0.0 0.00 0.00 0.00 97 1008.8
20260507111947 10 237 0.0 0.0 0.00 0.00 0.00 97 1008.8
20260507111441 10 237 0.0 0.0 0.00 0.00 0.00 97 1008.6
20260507110935 10 237 0.0 0.0 0.00 0.00 0.00 97 1008.7
20260507110429 10 237 0.0 0.0 0.00 0.00 0.00 97 1008.7
20260507105923 10 237 0.0 0.0 0.00 0.00 0.00 97 1008.7
20260507105417 9 237 0.0 0.0 0.00 0.00 0.00 97 1008.5
20260507104911 9 237 0.0 0.0 0.00 0.00 0.00 97 1008.4
20260507104405 9 237 0.0 0.0 0.00 0.00 0.00 97 1008.3
20260507103859 9 237 0.0 0.0 0.00 0.00 0.00 96 1008.4
20260507103353 9 237 0.0 0.0 0.00 0.00 0.00 96 1008.4
20260507102847 9 237 0.0 0.0 0.00 0.00 0.00 96 1008.6
20260507102341 9 237 0.0 0.0 0.00 0.00 0.00 96 1008.8
20260507101835 9 237 0.0 0.0 0.00 0.00 0.00 96 1008.8
20260507101329 9 237 0.0 0.0 0.00 0.00 0.00 96 1008.8
20260507100823 9 237 0.0 0.0 0.00 0.00 0.00 96 1008.4
20260507100317 9 237 0.0 0.0 0.00 0.00 0.00 96 1008.5
20260507095811 9 237 0.0 0.0 0.00 0.00 0.00 96 1008.4
20260507095306 9 237 0.0 0.0 0.00 0.00 0.00 96 1008.6
20260507094759 10 237 0.0 0.0 0.00 0.00 0.00 96 1008.5
20260507094253 10 237 0.0 0.0 0.00 0.00 0.00 96 1008.1
20260507093747 10 237 0.0 0.0 0.00 0.00 0.00 96 1007.9
20260507093241 10 237 0.0 0.0 0.00 0.00 0.00 96 1008.1
20260507092735 10 237 0.0 0.0 0.00 0.00 0.00 95 1008.3
20260507092229 10 237 0.0 0.0 0.00 0.00 0.00 95 1008.0
20260507091723 10 237 0.0 0.0 0.00 0.00 0.00 95 1008.1
20260507091217 10 237 0.0 0.0 0.00 0.00 0.00 95 1008.0
20260507090711 10 237 0.0 0.0 0.00 0.00 0.00 95 1007.8
20260507090205 10 237 0.0 0.0 0.00 0.00 0.00 95 1007.8
20260507085659 10 237 0.0 0.0 0.00 0.00 0.00 95 1007.8
20260507085153 10 237 0.0 0.0 0.00 0.00 0.00 95 1008.0
20260507084647 10 237 0.0 0.0 0.00 0.00 0.00 94 1008.0
20260507084141 10 237 0.0 0.0 0.00 0.00 0.00 94 1008.2
20260507083635 10 237 0.0 0.0 0.00 0.00 0.00 94 1008.1
20260507083129 10 236 0.0 0.0 0.00 0.00 0.00 94 1008.1
20260507082623 10 236 0.0 0.0 0.00 0.00 0.00 94 1008.1
20260507082117 10 236 0.0 0.0 0.00 0.00 0.00 94 1008.1
20260507081611 10 236 0.0 0.0 0.00 0.00 0.00 93 1007.8
20260507081105 11 236 0.0 0.0 0.00 0.00 0.00 93 1007.6
20260507080559 11 236 0.0 0.0 0.00 0.00 0.00 94 1007.8
20260507080053 11 236 0.0 0.0 0.00 0.00 0.00 94 1008.2
20260507075547 11 236 0.0 0.0 0.00 0.00 0.00 93 1008.1
20260507075041 11 236 0.0 0.0 0.00 0.00 0.00 93 1008.0
20260507074535 11 236 0.0 0.0 0.00 0.00 0.00 93 1008.0
20260507074029 11 236 0.0 0.0 0.00 0.00 0.00 94 1007.6
20260507073523 12 236 0.0 0.0 0.00 0.00 0.00 94 1007.9
20260507073017 12 236 0.0 0.0 0.00 0.00 0.00 94 1007.8
20260507072511 12 236 0.0 0.0 0.00 0.00 0.00 94 1007.4
20260507072005 12 236 0.0 0.0 0.00 0.00 0.00 94 1007.1
20260507071459 12 236 0.0 0.0 0.00 0.00 0.00 94 1006.9
20260507070953 12 236 0.0 0.0 0.00 0.00 0.00 93 1006.7
20260507070447 12 236 0.0 0.0 0.00 0.00 0.00 93 1006.5
20260507065941 12 236 0.0 0.0 0.00 0.00 0.00 94 1006.8
20260507065435 12 236 0.0 0.0 0.00 0.00 0.00 94 1006.9
20260507064929 12 236 0.0 0.0 0.00 0.00 0.00 94 1006.8
20260507064423 12 236 0.0 0.0 0.00 0.00 0.00 94 1006.7
20260507063917 12 236 0.0 0.0 0.00 0.00 0.00 94 1006.7
20260507063411 13 236 0.0 0.0 0.00 0.00 0.00 94 1006.9
20260507062905 13 236 0.0 0.0 0.00 0.00 0.00 94 1007.0
20260507062359 13 236 0.0 0.0 0.00 0.00 0.00 95 1007.0
20260507061853 13 236 0.0 0.0 0.00 0.00 0.00 95 1006.9
20260507061347 13 236 0.0 0.0 0.00 0.00 0.00 95 1006.7
20260507060841 13 236 0.0 0.0 0.00 0.00 0.00 95 1006.8
20260507060335 13 236 0.0 0.0 0.00 0.00 0.00 95 1006.9
20260507055829 13 236 0.0 0.0 0.00 0.00 0.00 96 1006.9
20260507055323 14 236 0.0 0.0 0.00 0.00 0.00 96 1007.1
20260507054817 14 236 0.0 0.0 0.00 0.00 0.00 96 1007.2
20260507054311 14 236 0.0 0.0 0.00 0.00 0.00 96 1007.1
20260507053805 14 236 0.0 0.0 0.00 0.00 0.00 96 1007.0
20260507053259 14 236 0.0 0.0 0.00 0.00 0.00 96 1007.0
20260507052753 14 236 0.0 0.0 0.00 0.00 0.00 96 1007.4
20260507052247 14 236 0.0 0.0 0.00 0.00 0.00 96 1007.2
20260507051741 14 236 0.0 0.0 0.00 0.00 0.00 96 1007.2
20260507051235 15 236 0.0 0.0 0.00 0.00 0.00 96 1007.2
20260507050729 15 236 0.0 0.0 0.00 0.00 0.00 96 1007.0
20260507050223 15 236 0.0 0.0 0.00 0.00 0.00 96 1007.0
20260507045717 15 236 0.0 0.0 0.00 0.00 0.00 96 1007.1
20260507045211 15 236 0.0 0.0 0.00 0.00 0.00 96 1007.2
20260507044705 15 236 0.0 0.0 0.00 0.00 0.00 96 1006.9
20260507044159 15 236 0.0 0.0 0.00 0.00 0.00 96 1007.0
20260507043653 15 236 0.0 0.0 0.00 0.00 0.00 96 1007.1
20260507043147 15 236 0.0 0.0 0.00 0.00 0.00 96 1007.1
20260507042641 15 236 0.0 0.0 0.00 0.00 0.00 96 1007.0
20260507042135 15 236 0.0 0.0 0.00 0.00 0.00 96 1007.0
20260507041629 15 236 0.0 0.0 0.00 0.00 0.00 96 1006.8
20260507041123 15 236 0.0 0.0 0.00 0.00 0.00 96 1006.9
20260507040617 15 236 0.0 0.0 0.00 0.00 0.00 96 1007.0
20260507040111 15 174 0.0 0.0 0.00 0.00 0.00 96 1006.9
20260507035605 15 174 0.0 0.0 0.00 0.00 0.00 96 1007.1
20260507035059 15 183 0.0 0.0 0.00 0.00 0.00 96 1007.1
20260507034553 15 222 0.0 0.0 0.00 0.00 0.00 96 1007.2
20260507034047 15 190 0.0 0.0 0.00 0.00 0.00 96 1007.2
20260507033541 15 218 0.0 0.0 0.00 0.00 0.00 96 1007.1
20260507033035 15 212 3.2 0.0 0.00 0.00 0.00 96 1007.2
20260507032529 15 250 0.0 0.0 0.00 0.00 0.00 96 1007.0
20260507032023 15 181 1.6 0.0 0.00 0.00 0.00 96 1006.9
20260507031517 15 203 0.0 0.0 0.00 0.00 0.00 96 1006.9
20260507031011 15 228 0.0 0.0 0.00 0.00 0.00 96 1006.7
20260507030505 15 208 0.0 0.0 0.00 0.00 0.00 96 1006.8
20260507025959 15 212 0.0 0.0 0.00 0.00 0.00 96 1006.8
20260507025453 15 236 0.0 0.0 0.00 0.00 0.00 96 1006.8
20260507024947 15 236 1.6 0.0 0.00 0.00 0.00 96 1006.8
20260507024441 15 28 0.0 0.0 0.00 0.00 0.00 96 1006.7
20260507023935 15 252 0.0 0.0 0.00 0.00 0.00 96 1006.6
20260507023429 15 105 0.0 0.0 0.00 0.00 0.00 96 1006.6
20260507022923 15 111 0.0 0.0 0.00 0.00 0.00 96 1006.7
20260507022417 15 218 1.6 0.0 0.00 0.00 0.00 96 1006.7
20260507021911 15 207 0.0 0.0 0.00 0.00 0.00 96 1006.7
20260507021405 15 209 0.0 0.0 0.00 0.00 0.00 96 1006.7
20260507020859 15 210 0.0 0.0 0.00 0.00 0.00 96 1006.7
20260507020353 15 210 0.0 0.0 0.00 0.00 0.00 96 1006.9
20260507015847 15 255 0.0 0.0 0.00 0.00 0.00 96 1006.9
20260507015341 14 254 0.0 0.0 0.00 0.00 0.00 96 1006.7
20260507014835 14 254 0.0 0.0 0.00 0.00 0.00 96 1006.7
20260507014329 14 255 0.0 0.0 0.00 0.00 0.00 96 1006.6
20260507013823 14 62 0.0 0.0 0.00 0.00 0.00 96 1006.8
20260507013317 14 92 0.0 0.0 0.00 0.00 0.00 96 1006.7
20260507012811 14 204 0.0 0.0 0.00 0.00 0.00 96 1006.8
20260507012306 14 204 0.0 0.0 0.00 0.00 0.00 96 1007.0
20260507011759 14 206 0.0 0.0 0.00 0.00 0.00 96 1007.1
20260507011253 14 206 0.0 0.0 0.00 0.00 0.00 96 1007.2
20260507010747 14 206 0.0 0.0 0.00 0.00 0.00 96 1007.1
20260507010241 14 214 0.0 0.0 0.00 0.00 0.00 96 1007.2
20260507005735 14 218 0.0 0.0 0.00 0.00 0.00 96 1007.2
20260507005229 14 218 0.0 0.0 0.00 0.00 0.00 96 1007.2
20260507004723 14 219 0.0 0.0 0.00 0.00 0.00 96 1007.2
20260507004217 14 204 0.0 0.0 0.00 0.00 0.00 96 1007.2
20260507003711 14 354 0.0 0.0 0.00 0.00 0.00 96 1007.2
20260507003205 14 301 0.0 0.0 0.00 0.00 0.00 95 1007.1
20260507002659 14 234 0.0 0.0 0.00 0.00 0.00 95 1007.1
20260507002153 14 274 1.6 0.0 0.00 0.00 0.00 95 1006.9
20260507001647 14 112 0.0 0.0 0.00 0.00 0.00 95 1006.9
20260507001141 14 111 0.0 0.0 0.00 0.00 0.00 95 1006.9
20260507000635 14 230 1.6 0.0 0.00 0.00 0.00 95 1006.8
20260507000129 14 231 0.0 0.0 0.00 0.00 0.00 95 1006.8
20260506235623 15 84 0.0 0.0 0.00 0.00 0.00 95 1006.8
20260506235117 15 334 0.0 0.0 0.00 0.00 0.00 95 1006.8
20260506234611 15 317 0.0 0.0 0.00 0.00 0.00 95 1006.8
20260506234105 15 242 0.0 0.0 0.00 0.00 0.00 94 1006.8
20260506233559 15 212 0.0 0.0 0.00 0.00 0.00 94 1006.6
20260506233053 15 81 0.0 0.0 0.00 0.00 0.00 94 1006.6
20260506232547 15 48 0.0 0.0 0.00 0.00 0.00 94 1006.6
20260506232041 15 93 0.0 0.0 0.00 0.00 0.00 94 1006.7
20260506231535 15 50 0.0 0.0 0.00 0.00 0.00 94 1006.7
20260506231029 15 223 1.6 0.0 0.00 0.00 0.00 93 1006.7
20260506230523 15 107 0.0 0.0 0.00 0.00 0.00 93 1006.8
20260506230017 15 94 0.0 0.0 0.00 0.00 0.00 93 1006.7
20260506225511 15 92 0.0 0.0 0.00 0.00 0.00 93 1006.8
20260506225005 15 103 0.0 0.0 0.00 0.00 0.00 94 1006.8
20260506224459 15 100 0.0 0.0 0.00 0.00 0.00 94 1006.8
20260506223953 15 100 0.0 0.0 0.00 0.00 0.00 94 1006.6
20260506223447 15 42 0.0 0.0 0.00 0.00 0.00 93 1006.7
20260506222941 15 102 0.0 0.0 0.00 0.00 0.00 93 1006.6
20260506222435 15 31 0.0 0.0 0.00 0.00 0.00 93 1006.7
20260506221929 15 110 0.0 0.0 0.00 0.00 0.00 93 1006.8
20260506221423 15 77 0.0 0.0 0.00 0.00 0.00 93 1006.9
20260506220917 15 58 0.0 0.0 0.00 0.00 0.00 93 1007.0
20260506220411 15 213 0.0 0.0 0.00 0.00 0.00 93 1007.0
20260506215905 15 292 0.0 0.0 0.00 0.00 0.00 93 1007.1
20260506215359 16 292 0.0 0.0 0.00 0.00 0.00 93 1007.1
20260506214853 16 241 0.0 0.0 0.00 0.00 0.00 93 1006.9
20260506214347 16 243 0.0 0.0 0.00 0.00 0.00 93 1006.9
20260506213841 16 117 0.0 0.0 0.00 0.00 0.00 93 1007.1
20260506213335 16 216 0.0 0.0 0.00 0.00 0.00 92 1007.2
20260506212829 16 228 1.6 0.0 0.00 0.00 0.00 92 1007.3
20260506212323 16 265 0.0 0.0 0.00 0.00 0.00 92 1007.3
20260506211817 16 304 0.0 0.0 0.00 0.00 0.00 92 1007.3
20260506211311 16 260 0.0 0.0 0.00 0.00 0.00 92 1007.4
20260506210805 16 285 0.0 0.0 0.00 0.00 0.00 91 1007.3
20260506210259 16 234 1.6 0.0 0.00 0.00 0.00 91 1007.3
20260506205753 16 227 1.6 0.0 0.00 0.00 0.00 90 1007.3
20260506205247 16 226 0.0 17.7 0.00 0.00 0.00 90 1007.4
20260506204741 16 267 3.2 17.7 0.00 0.00 0.00 89 1007.5
20260506204235 16 136 1.6 0.0 0.00 0.00 0.00 88 1007.4
20260506203729 16 214 4.8 0.0 0.00 0.00 0.00 88 1007.5
20260506203223 16 202 1.6 0.0 0.00 0.00 0.00 88 1007.5
20260506202717 16 148 3.2 0.0 0.00 0.00 0.00 88 1007.5
20260506202211 16 232 3.2 0.0 0.00 0.00 0.00 87 1007.7
20260506201705 16 211 0.0 0.0 0.00 0.00 0.00 87 1007.5
20260506201159 17 303 0.0 0.0 0.00 0.00 0.00 86 1007.6
20260506200653 17 187 0.0 0.0 0.00 0.00 0.00 86 1007.6
20260506200147 17 259 1.6 0.0 0.00 0.00 0.00 84 1007.5
20260506195641 17 242 0.0 0.0 0.00 0.00 0.00 84 1007.5
20260506195135 17 96 0.0 0.0 0.00 0.00 0.00 83 1007.5
20260506194629 17 96 0.0 0.0 0.00 0.00 0.00 83 1007.3
20260506194123 17 99 0.0 0.0 0.00 0.00 0.00 82 1007.4
20260506193617 18 106 0.0 0.0 0.00 0.00 0.00 80 1007.5
20260506193111 18 260 0.0 0.0 0.00 0.00 0.00 80 1007.7
20260506192605 18 91 0.0 0.0 0.00 0.00 0.00 78 1007.6
20260506192059 18 266 0.0 0.0 0.00 0.00 0.00 77 1007.6
20260506191553 19 285 0.0 0.0 0.00 0.00 0.00 75 1007.7
20260506191047 19 297 0.0 0.0 0.00 0.00 0.00 74 1007.7
20260506190541 20 233 0.0 0.0 0.00 0.00 0.00 73 1007.6
20260506190035 20 141 1.6 0.0 0.00 0.00 0.00 69 1007.7
20260506185530 20 304 0.0 0.0 0.00 0.00 0.00 69 1007.6
20260506185023 20 138 0.0 0.0 0.00 0.00 0.00 67 1007.5
20260506184517 20 11 0.0 0.0 0.00 0.00 0.00 66 1007.5
20260506184011 20 75 0.0 0.0 0.00 0.00 0.00 66 1007.6
20260506183505 20 94 1.6 0.0 0.00 0.00 0.00 65 1007.7
20260506182959 21 87 0.0 0.0 0.00 0.00 0.00 64 1007.7
20260506182453 21 119 1.6 0.0 0.00 0.00 0.00 63 1007.7
20260506181947 21 87 0.0 0.0 0.00 0.00 0.00 63 1007.8
20260506181441 21 162 3.2 0.0 0.00 0.00 0.00 62 1007.6
20260506180935 21 9 0.0 0.0 0.00 0.00 0.00 62 1007.7
20260506180429 21 134 0.0 20.9 0.00 0.00 0.00 61 1007.8
20260506175923 21 230 4.8 20.9 0.00 0.00 0.00 60 1007.9
20260506175417 22 271 1.6 19.3 0.00 0.00 0.00 60 1007.9
20260506174911 22 337 0.0 0.0 0.00 0.00 0.00 60 1008.0
20260506174405 22 179 1.6 0.0 0.00 0.00 0.00 57 1007.9
20260506173859 22 20 1.6 17.7 0.00 0.00 0.00 57 1008.0
20260506173353 22 141 3.2 19.3 0.00 0.00 0.00 57 1008.0
20260506172847 22 143 3.2 19.3 0.00 0.00 0.00 57 1008.1
20260506172341 22 33 1.6 17.7 0.00 0.00 0.00 58 1008.3
20260506171835 22 224 3.2 0.0 0.00 0.00 0.00 57 1008.1
20260506171329 22 152 1.6 22.5 0.00 0.00 0.00 57 1008.2
20260506170823 22 193 3.2 22.5 0.00 0.00 0.00 58 1007.9
20260506170317 22 130 0.0 0.0 0.00 0.00 0.00 58 1008.0
20260506165811 22 121 1.6 0.0 0.00 0.00 0.00 57 1008.0
20260506165306 22 75 1.6 0.0 0.00 0.00 0.00 62 1008.2
20260506164759 22 100 0.0 0.0 0.00 0.00 0.00 60 1008.2
20260506164253 22 270 1.6 0.0 0.00 0.00 0.00 60 1008.3
20260506163747 22 315 0.0 0.0 0.00 0.00 0.00 63 1008.5
20260506163241 22 213 0.0 0.0 0.00 0.00 0.00 61 1008.5
20260506162735 22 69 1.6 0.0 0.00 0.00 0.00 60 1008.6
20260506162229 22 100 1.6 0.0 0.00 0.00 0.00 59 1008.6
20260506161723 22 115 0.0 0.0 0.00 0.00 0.00 61 1008.6
20260506161217 22 91 0.0 0.0 0.00 0.00 0.00 61 1008.8
20260506160711 22 98 0.0 0.0 0.00 0.00 0.00 61 1008.9
20260506160205 22 94 1.6 0.0 0.00 0.00 0.00 61 1008.9
20260506155659 22 105 0.0 0.0 0.00 0.00 0.00 62 1008.9
20260506155153 22 31 1.6 0.0 0.00 0.00 0.00 60 1009.0
20260506154647 22 69 0.0 0.0 0.00 0.00 0.00 63 1009.1
20260506154141 22 88 0.0 0.0 0.00 0.00 0.00 61 1009.2
20260506153635 22 251 1.6 0.0 0.00 0.00 0.00 61 1009.3
20260506153129 22 67 0.0 0.0 0.00 0.00 0.00 62 1009.4
20260506152623 22 149 1.6 0.0 0.00 0.00 0.00 62 1009.5
20260506152117 22 95 1.6 0.0 0.00 0.00 0.00 62 1009.5